Location: Cussy
(47.0410°N, 4.6412°E)
Time: 09:03:28
(UTC+00:00)

Orbcomm A4 (FM08) - Visible Passes

Search period start: 16 June 2021 00:00
Search period end: 26 June 2021 00:00
Orbit: 756 x 765 km, 45.0° (Epoch: 15 June)

Date Brightness Start Highest point End Pass type
(mag) Time Alt. Az. Time Alt. Az. Time Alt. Az.
16 Jun 9.5 00:24:48 10° W 00:27:06 19° WSW 00:27:06 19° WSW visible
16 Jun 8.0 20:12:42 10° WSW 20:18:02 70° S 20:23:20 10° E visible
16 Jun 8.0 21:57:43 10° W 22:02:59 62° SSW 22:06:46 19° ESE visible
16 Jun 9.0 23:43:03 10° W 23:46:45 27° SW 23:46:45 27° SW visible
17 Jun 8.0 21:16:09 10° W 21:21:27 67° S 21:26:32 11° ESE visible
17 Jun 8.6 23:01:22 10° W 23:06:08 34° SSW 23:06:31 34° SSW visible
18 Jun 8.0 20:34:35 10° W 20:39:54 71° S 20:45:13 10° ESE visible
18 Jun 8.5 22:19:43 10° W 22:24:41 40° SSW 22:26:21 31° SSE visible
19 Jun 8.3 21:38:06 10° W 21:43:11 46° SSW 21:46:16 22° SE visible
19 Jun 9.8 23:24:09 10° WSW 23:26:16 16° SW 23:26:16 16° SW visible
20 Jun 8.2 20:56:31 10° W 21:01:42 53° SSW 21:06:14 13° SE visible
20 Jun 9.3 22:42:10 10° W 22:46:06 21° SW 22:46:14 21° SW visible
21 Jun 8.2 20:14:56 10° W 20:20:11 59° SSW 20:25:25 10° ESE visible
21 Jun 9.1 22:00:22 10° W 22:04:42 26° SSW 22:06:15 22° S visible
22 Jun 9.0 21:18:38 10° W 21:23:17 31° SSW 21:26:18 18° SSE visible
23 Jun 8.8 20:36:58 10° W 20:41:50 37° SSW 20:46:24 11° SE visible
23 Jun 10.1 22:24:21 10° WSW 22:25:54 11° SW 22:26:25 11° SW visible
24 Jun 9.9 21:41:41 10° WSW 21:44:33 15° SW 21:46:34 12° SSW visible
25 Jun 9.7 20:59:34 10° W 21:03:12 19° SW 21:06:47 10° S visible
